Regional Weather Roundup
Issued by NWS State College, PA

Home | Current Version | Previous Version | Text Only | Print | Product List | Glossary On
Versions: 1 2 3 4 5 6 7 8 9 10 11 12 13 14 15 16 17 18 19 20 21 22 23 24 25 26 27 28 29 30 31 32 33 34 35 36 37 38 39 40 41 42 43 44 45 46 47 48 49 50
359
ASUS41 KCTP 102203
RWRCTP

REGIONAL WEATHER ROUNDUP
NATIONAL WEATHER SERVICE STATE COLLEGE PA
500 PM EST WED FEB 10 2016

Note: "fair" indicates few or no clouds below 12,000 feet with no
significant weather and/or obstructions to visibility.

* = STATION THAT DOES NOT REPORT PRECIPITATION /E.G. RAIN...SNOW...ETC/
    THUNDER OR FOG.

PAZ002>004-007>009-013>016-020>023-029>032-102300-
WESTERN PENNSYLVANIA

CITY           SKY/WX    TMP DP  RH WIND       PRES   REMARKS
ERIE           CLOUDY    19  10  68 W14G24    29.83R HAZE    WCI   6
MEADVILLE      LGT SNOW  18  12  77 W8        29.78R VSB 1   WCI   8
FRANKLIN*      CLOUDY    18  12  79 NW8G17    29.78R VSB 1/4 WCI   7
NEW CASTLE     LGT SNOW  21  14  73 W14       29.83R WCI   8
BEAVER COUNTY  MOCLDY    21  14  73 W9        29.82R WCI  11
BUTLER*        CLOUDY    19  14  79 SW8       29.85R VSB 1/2 WCI   9
PITTSBURGH INT LGT SNOW  20  13  74 SW10      29.82R WCI   9
PITTSBURGH     CLOUDY    21  12  68 SW16      29.82S WCI   7
INDIANA*       CLOUDY    19  14  79 W14       29.82R HAZE    WCI   6
LATROBE        LGT SNOW  19  16  86 SW18      29.84R WCI   4
WASHINGTON CO* MOCLDY    19  10  68 SW13G22   29.85R WCI   7
$$

PAZ004>006-010>012-017>019-024>028-033>037-041-042-045-046-049>053-102300-
CENTRAL PENNSYLVANIA

CITY           SKY/WX    TMP DP  RH WIND       PRES   REMARKS
BRADFORD       LGT SNOW  17  10  74 W15       29.66R WCI   2
DUBOIS         LGT SNOW  17  12  80 SW14      29.71R WCI   3
CLEARFIELD     FLURRIES  19  10  68 W13G24    29.74R WCI   6
JOHNSTOWN      LGT SNOW  14   7  73 W10       29.71R WCI   1
ALTOONA        CLOUDY    19   9  65 W16       29.78R WCI   4
STATE COLLEGE  CLOUDY    23  12  63 SW9G17    29.75R WCI  13
WILLIAMSPORT   CLOUDY    28  15  58 W17G26    29.73R
SELINSGROVE    CLOUDY    28  13  53 W10G17    29.78R
FT INDIANTOWN  CLOUDY    29  13  51 W13G21    29.76R
CAPITAL CITY   CLOUDY    31  12  45 W9        29.78R
HARRISBURG     CLOUDY    31  14  49 W16       29.78R
YORK           CLOUDY    29  13  51 W10       29.78R
$$

PAZ038>040-043-044-047-048-054-055-060>062-067>071-102300-
EASTERN PENNSYLVANIA

CITY           SKY/WX    TMP DP  RH WIND       PRES   REMARKS
SCRANTON       MOCLDY    29  18  63 W16       29.65R
MOUNT POCONO   CLOUDY    25  13  60 W14G28    29.58R WCI  13
ALLENTOWN      PTCLDY    32  17  54 W12       29.71R
QUAKERTOWN*    NOT AVBL
READING        CLOUDY    31  15  52 W12       29.75R
LANCASTER      CLOUDY    29  15  56 W16       29.77R
COATESVILLE    CLOUDY    28  19  69 W12       29.76R
POTTSTOWN      CLOUDY    30  15  53 W9G21     29.76R
BLUE BELL        N/A     32  18  55 W3        29.74R
DOYLESTOWN     MOCLDY    30  15  53 W13       29.71R
WILLOW GROVE   NOT AVBL
NORTH PHILA    CLOUDY    34  19  54 W13       29.76R
PHILADELPHIA   MOCLDY    34  15  46 W15       29.78R
$$




USA.gov is the U.S. government's official web portal to all federal, state and local government web resources and services.